KONDOR-E                
1 40353U 14084A   19264.82102408  .00002668  00000-0  67604-4 0  9998
2 40353  74.7394 249.6455 0001788 244.1017 116.0011 15.40223058266283
SL-27 R/B               
1 40354U 14084B   19264.79293725  .00000511  00000-0  13924-4 0  9999
2 40354  74.7376 225.7919 0038454 193.4127 166.6067 15.39807203267025